• In Moldova, Republic
  • List of Countries
  • For 7 days
  • Water Temperature
  • Satellite Maps
  • Weather Map
  • Weather Widgets
  • user-avatar
    Login

    Hourly Weather Prutz

    Today, 23 November, Thursday

    Time Temperature Precipitation Wind Pressure Humidity
    00:00 -2°C° 0 mm 3 mps 630 mmHg 77%
    01:00 -2°C° 0 mm 3 mps 630 mmHg 77%
    02:00 -2°C° 0 mm 3 mps 630 mmHg 77%
    03:00 -2°C° 0 mm 3 mps 630 mmHg 77%
    04:00 -2°C° 0 mm 3 mps 630 mmHg 77%
    05:00 -2°C° 0 mm 3 mps 630 mmHg 77%
    06:00 -2°C° 0 mm 3 mps 630 mmHg 76%
    07:00 -2°C° 0 mm 3 mps 630 mmHg 76%
    08:00 -1°C° 0 mm 3 mps 631 mmHg 76%
    09:00 +2°C° 0 mm 2 mps 631 mmHg 76%
    10:00 +3°C° 0 mm 2 mps 632 mmHg 76%
    11:00 +4°C° 0 mm 2 mps 632 mmHg 78%
    12:00 +5°C° 0 mm 2 mps 632 mmHg 81%
    13:00 +7°C° 0 mm 1 mps 632 mmHg 84%
    14:00 +6°C° 0 mm 1 mps 632 mmHg 83%
    15:00 +5°C° 0 mm 1 mps 632 mmHg 81%
    16:00 +4°C° 0 mm 1 mps 631 mmHg 80%
    17:00 +3°C° 0 mm 1 mps 632 mmHg 79%
    18:00 +2°C° 0 mm 1 mps 632 mmHg 78%
    19:00 +1°C° 0 mm 1 mps 632 mmHg 76%
    20:00 +1°C° 0 mm 1 mps 632 mmHg 75%
    21:00 +1°C° 0 mm 1 mps 632 mmHg 73%
    22:00 0°C° 0 mm 1 mps 633 mmHg 71%
    23:00 0°C° 0 mm 1 mps 633 mmHg 70%

    Tomorrow, 24 November, Friday

    Time Temperature Precipitation Wind Pressure Humidity
    00:00 -2°C° 0 mm 2 mps 633 mmHg 69%
    01:00 -2°C° 0 mm 2 mps 633 mmHg 68%
    02:00 -2°C° 0 mm 2 mps 633 mmHg 69%
    03:00 -2°C° 0 mm 2 mps 632 mmHg 70%
    04:00 -2°C° 0 mm 2 mps 632 mmHg 71%
    05:00 -2°C° 0 mm 2 mps 632 mmHg 72%
    06:00 -2°C° 0 mm 2 mps 632 mmHg 74%
    07:00 -3°C° 0 mm 2 mps 632 mmHg 75%
    08:00 -1°C° 0 mm 2 mps 633 mmHg 75%
    09:00 +2°C° 0 mm 2 mps 633 mmHg 75%
    10:00 +3°C° 0 mm 2 mps 633 mmHg 75%
    11:00 +4°C° 0 mm 2 mps 633 mmHg 76%
    12:00 +5°C° 0 mm 2 mps 633 mmHg 78%
    13:00 +6°C° 0 mm 2 mps 633 mmHg 79%
    14:00 +5°C° 0 mm 2 mps 633 mmHg 80%
    15:00 +4°C° 0 mm 2 mps 632 mmHg 81%
    16:00 +3°C° 0 mm 2 mps 632 mmHg 82%
    17:00 +2°C° 0 mm 2 mps 632 mmHg 82%
    18:00 +1°C° 0 mm 2 mps 632 mmHg 82%
    19:00 +1°C° 0 mm 2 mps 632 mmHg 82%
    20:00 +1°C° 0 mm 2 mps 632 mmHg 82%
    21:00 +1°C° 0 mm 2 mps 632 mmHg 83%
    22:00 +1°C° 0 mm 2 mps 632 mmHg 83%
    23:00 -1°C° 0 mm 2 mps 632 mmHg 84%

    Day after tomorrow, 25 November, Saturday

    Time Temperature Precipitation Wind Pressure Humidity
    00:00 -1°C° 0 mm 2 mps 631 mmHg 85%
    01:00 -1°C° 0 mm 2 mps 631 mmHg 87%
    02:00 -1°C° 0 mm 3 mps 631 mmHg 87%
    03:00 -1°C° 0 mm 3 mps 630 mmHg 88%
    04:00 -1°C° 0 mm 3 mps 630 mmHg 89%
    05:00 -1°C° 0 mm 3 mps 629 mmHg 88%
    06:00 -1°C° 0 mm 3 mps 629 mmHg 88%
    07:00 0°C° 0 mm 3 mps 629 mmHg 88%
    08:00 +1°C° 0 mm 3 mps 629 mmHg 87%
    09:00 +1°C° 0 mm 3 mps 629 mmHg 86%
    10:00 +2°C° 0 mm 3 mps 629 mmHg 86%
    11:00 +2°C° 0.4 mm 3 mps 629 mmHg 88%
    12:00 +3°C° 0.4 mm 3 mps 629 mmHg 90%
    13:00 +4°C° 0.4 mm 2 mps 629 mmHg 92%
    14:00 +3°C° 1.5 mm 2 mps 629 mmHg 94%
    15:00 +4°C° 1.5 mm 1 mps 628 mmHg 95%
    16:00 +3°C° 1.5 mm 1 mps 628 mmHg 96%
    17:00 +3°C° 0.8 mm 1 mps 628 mmHg 96%
    18:00 +1°C° 0.8 mm 2 mps 628 mmHg 96%
    19:00 +1°C° 0.8 mm 2 mps 628 mmHg 96%
    20:00 -1°C° 0.6 mm 3 mps 629 mmHg 96%
    21:00 -1°C° 0.6 mm 3 mps 629 mmHg 95%
    22:00 -2°C° 0.6 mm 3 mps 630 mmHg 94%
    23:00 -4°C° 0.2 mm 3 mps 630 mmHg 94%

    26 November, Sunday

    Time Temperature Precipitation Wind Pressure Humidity
    00:00 -5°C° 0.2 mm 3 mps 630 mmHg 94%
    01:00 -5°C° 0.2 mm 3 mps 631 mmHg 94%
    02:00 -6°C° 0.1 mm 3 mps 631 mmHg 94%
    03:00 -7°C° 0.1 mm 3 mps 631 mmHg 94%
    04:00 -8°C° 0.1 mm 3 mps 631 mmHg 94%
    05:00 -9°C° 0.1 mm 3 mps 631 mmHg 94%
    06:00 -9°C° 0.1 mm 3 mps 631 mmHg 94%
    07:00 -10°C° 0.1 mm 3 mps 631 mmHg 94%
    08:00 -10°C° 0 mm 3 mps 632 mmHg 90%
    09:00 -9°C° 0 mm 3 mps 632 mmHg 87%
    10:00 -9°C° 0 mm 3 mps 633 mmHg 84%
    11:00 -8°C° 0 mm 3 mps 633 mmHg 79%
    12:00 -8°C° 0 mm 3 mps 633 mmHg 74%
    13:00 -7°C° 0 mm 3 mps 633 mmHg 69%
    14:00 -8°C° 0 mm 3 mps 633 mmHg 74%
    15:00 -8°C° 0 mm 2 mps 633 mmHg 78%
    16:00 -8°C° 0 mm 2 mps 633 mmHg 83%
    17:00 -9°C° 0 mm 2 mps 633 mmHg 85%
    18:00 -10°C° 0 mm 2 mps 633 mmHg 87%
    19:00 -10°C° 0 mm 2 mps 634 mmHg 89%
    20:00 -10°C° 0 mm 2 mps 634 mmHg 89%
    21:00 -12°C° 0 mm 2 mps 634 mmHg 89%
    22:00 -10°C° 0 mm 1 mps 634 mmHg 88%
    23:00 -10°C° 0 mm 1 mps 634 mmHg 88%

    27 November, Monday

    Time Temperature Precipitation Wind Pressure Humidity
    00:00 -11°C° 0 mm 1 mps 634 mmHg 88%
    01:00 -11°C° 0 mm 1 mps 633 mmHg 88%
    02:00 -11°C° 0 mm 1 mps 633 mmHg 87%
    03:00 -11°C° 0 mm 1 mps 633 mmHg 87%
    04:00 -11°C° 0 mm 1 mps 633 mmHg 86%
    05:00 -11°C° 0 mm 1 mps 633 mmHg 86%
    06:00 -11°C° 0 mm 1 mps 633 mmHg 86%
    07:00 -11°C° 0 mm 1 mps 633 mmHg 85%
    08:00 -9°C° 0 mm 1 mps 634 mmHg 82%
    09:00 -8°C° 0 mm 1 mps 634 mmHg 78%
    10:00 -6°C° 0 mm 1 mps 635 mmHg 75%
    11:00 -4°C° 0 mm 1 mps 635 mmHg 72%
    12:00 -3°C° 0 mm 1 mps 635 mmHg 69%
    13:00 -2°C° 0 mm 1 mps 635 mmHg 66%
    14:00 -3°C° 0 mm 1 mps 634 mmHg 71%
    15:00 -4°C° 0 mm 1 mps 633 mmHg 75%
    16:00 -6°C° 0 mm 1 mps 633 mmHg 80%
    17:00 -7°C° 0 mm 1 mps 632 mmHg 79%
    18:00 -8°C° 0 mm 1 mps 632 mmHg 79%
    19:00 -10°C° 0 mm 2 mps 632 mmHg 78%
    20:00 -10°C° 0 mm 2 mps 632 mmHg 73%
    21:00 -9°C° 0 mm 2 mps 632 mmHg 68%
    22:00 -9°C° 0 mm 2 mps 632 mmHg 63%
    23:00 -9°C° 0 mm 2 mps 632 mmHg 61%

    28 November, Tuesday

    Time Temperature Precipitation Wind Pressure Humidity
    00:00 -9°C° 0 mm 2 mps 631 mmHg 59%
    01:00 -8°C° 0 mm 2 mps 631 mmHg 57%
    02:00 -8°C° 0 mm 2 mps 631 mmHg 57%
    03:00 -8°C° 0 mm 2 mps 631 mmHg 56%
    04:00 -8°C° 0 mm 2 mps 630 mmHg 56%
    05:00 -8°C° 0 mm 2 mps 630 mmHg 56%
    06:00 -8°C° 0 mm 2 mps 630 mmHg 56%
    07:00 -8°C° 0 mm 2 mps 630 mmHg 56%
    08:00 -6°C° 0 mm 2 mps 630 mmHg 57%
    09:00 -5°C° 0 mm 2 mps 630 mmHg 58%
    10:00 -3°C° 0 mm 2 mps 630 mmHg 59%
    11:00 -2°C° 0 mm 2 mps 630 mmHg 59%
    12:00 -1°C° 0 mm 2 mps 630 mmHg 59%
    13:00 +1°C° 0 mm 2 mps 629 mmHg 60%
    14:00 -1°C° 0 mm 2 mps 629 mmHg 64%
    15:00 -3°C° 0 mm 2 mps 628 mmHg 68%
    16:00 -4°C° 0 mm 2 mps 627 mmHg 72%
    17:00 -5°C° 0 mm 2 mps 627 mmHg 73%
    18:00 -6°C° 0 mm 2 mps 627 mmHg 74%
    19:00 -8°C° 0 mm 3 mps 626 mmHg 74%
    20:00 -8°C° 0 mm 3 mps 626 mmHg 75%
    21:00 -8°C° 0 mm 3 mps 626 mmHg 76%
    22:00 -8°C° 0 mm 3 mps 626 mmHg 76%
    23:00 -8°C° 0 mm 3 mps 626 mmHg 78%
    Show more